www.pogodaiklimat.ru

Погода и климат >> Архив погоды >> Македония >> Прилеп


ПОГОДА в Прилепе

  • Прогноз погоды в Прилепе
  • Монитор погоды в Прилепе

АРХИВ ПОГОДЫ в Прилепе

Время (UTC), дата Ветер
(напр.,м/с)
 
Видим.   Явления Облачность Т
(С)
Тd
(С)
f
(%)
Тe
(С)
Тes
(С)
Комфортность P
(гПа)
Po
(гПа)
Тmin
(С)
Tmax
(С)
R
(мм)
R24
(мм)
S
(см)
00 12.09 штиль 0 20 км 6/0 2000 м
[Ac trans Ci sp]
+18.4 +7.2 48 +19 +19 1020.0 943.3
03 12.09 штиль 0 20 км 3/0
[Ci sp]
+14.7 +7.7 63 +15 +15 1021.2 943.9
06 12.09 штиль 0 20 км 4/3 1000 м
[Sc Ac trans]
+16.2 +9.4 64 +16 +18 1021.8 944.7 +14.0
09 12.09 С 1 20 км 3/1 1000 м
[Cu hum Ac trans]
+23.8 +7.4 35 +24 +35 комфорт 1020.6 945.3
12 12.09 С 4 20 км 5/3 1000 м
[Cu hum Ac trans]
+25.2 +7.2 32 +25 +30 комфорт 1020.0 945.0
15 12.09 С 3 20 км 4/4 1000 м
[Cu Sc]
+24.0 +7.2 34 +24 +25 комфорт 1019.2 944.0
18 12.09 С 2 20 км 4/4 1000 м
[Sc]
+21.2 +6.2 38 +22 +22 комфорт 1021.6 945.5 +26.0
21 12.09 С 2 20 км 4/4 1230 м
[Sc]
+19.6 +4.5 37 +21 +21 комфорт 1023.1 946.6
00 13.09 С 2 20 км 4/0 2000 м
[Ac trans Ci sp]
+18.0 +4.5 41 +19 +19 1023.0 946.1
03 13.09 С 2 20 км 5/0 2000 м
[Ac trans Ci sp]
+17.2 +4.5 43 +18 +18 1023.3 946.1
06 13.09 С 2 20 км 4/1 1000 м
[Sc Ac trans Ci fib]
+17.8 +7.2 50 +18 +20 1024.2 947.2 +16.0
09 13.09 С 5 20 км 4/3 1000 м
[Cu hum Ac trans]
+22.2 +7.7 39 +23 +27 комфорт 1023.4 947.4
12 13.09 С 6 20 км 3/1 1000 м
[Cu hum Ci fib]
+24.6 +7.2 33 +25 +29 комфорт 1021.1 946.0
15 13.09 С 3 20 км 3/1 1000 м
[Cu hum Ci sp]
+24.4 +6.4 31 +24 +26 комфорт 1020.9 945.6
18 13.09 С 2 20 км ясно +20.8 +6.0 38 +22 +22 комфорт 1022.5 946.4 +25.4
00 14.09 штиль 0 20 км ясно +16.6 +4.5 45 +17 +17 1025.6 948.2
03 14.09 штиль 0 20 км ясно +13.3 +5.6 60 +13 +13 1026.0 947.5
06 14.09 штиль 0 20 км ясно +14.9 +8.3 65 +15 +17 1026.3 948.4 +11.9
09 14.09 С 2 20 км 1/1 1230 м
[Cu hum]
+22.4 +7.2 37 +23 +33 комфорт 1024.0 948.0
12 14.09 С 4 20 км ясно +25.0 +6.2 30 +25 +33 комфорт 1021.8 946.6
15 14.09 С 3 20 км ясно +25.2 +5.8 29 +25 +27 комфорт 1019.6 944.6
18 14.09 СВ 1 20 км ясно +21.2 +6.6 39 +22 +22 комфорт 1021.3 945.2 +26.4
21 14.09 СВ 3 10 км ясно +20.1 +9.0 49 +22 +22 комфорт 1023.1 946.6
00 15.09 штиль 0 10 км ясно +18.0 +10.0 59 +18 +18 1023.0 947.2
03 15.09 штиль 0 10 км ясно +13.2 +9.0 76 +13 +13 1025.7 947.5
06 15.09 штиль 0 20 км ясно +16.6 +10.3 66 +17 +19 1025.3 948.2 +12.8
09 15.09 штиль 0 20 км 1/1 1000 м
[Cu med, cong]
+22.7 +11.7 50 +25 +38 комфорт 1023.4 947.9
12 15.09 штиль 0 20 км 3/1 1000 м
[Cu hum Ci sp]
+27.3 +10.8 36 +28 +41 жарко 1020.2 945.9
15 15.09 штиль 0 20 км 1/1 1230 м
[Cu hum]
+26.2 +12.0 41 +28 +30 жарко 1018.6 944.2
18 15.09 штиль 0 10 км ясно +20.4 +7.9 44 +21 +21 комфорт 1020.4 944.2 +27.7
21 15.09 штиль 0 10 км ясно +16.8 +7.0 52 +17 +17 1021.8 944.7
00 16.09 штиль 0 10 км ясно +15.0 +7.2 60 +15 +15 1021.9 944.3
03 16.09 штиль 0 10 км ясно +12.8 +7.6 71 +12 +12 1021.8 943.6
06 16.09 штиль 0 20 км ясно +14.3 +8.8 69 +14 +16 1020.3 942.9 +11.5
09 16.09 штиль 0 20 км ясно +22.1 +8.6 42 +23 +38 комфорт 1017.9 942.5
12 16.09 штиль 0 20 км ясно +26.9 +9.0 32 +27 +42 жарко 1014.4 940.5
15 16.09 штиль 0 20 км ясно +27.6 +6.6 26 +27 +30 жарко 1012.5 938.7
18 16.09 штиль 0 10 км ясно +21.8 +7.6 40 +23 +23 комфорт 1014.0 938.7 +29.5
21 16.09 штиль 0 20 км ясно +18.0 +6.4 47 +18 +18 1015.8 939.4
00 17.09 штиль 0 20 км ясно +15.0 +6.8 58 +15 +15 1016.8 939.5
03 17.09 штиль 0 20 км ясно +12.4 +7.4 72 +12 +12 1017.3 939.3
06 17.09 штиль 0 20 км ясно +14.8 +7.4 61 +15 +17 1016.6 939.4 +11.6
09 17.09 Ю 1 20 км ясно +24.7 +8.3 35 +25 +38 комфорт 1013.7 939.4
12 17.09 Ю 1 20 км ясно +29.0 +4.5 21 +27 +40 жарко 1011.0 937.6
15 17.09 штиль 0 20 км 1/0
[Ci fib]
+29.8 +4.2 20 +28 +31 жарко 1009.7 936.6
18 17.09 штиль 0 20 км ясно +23.4 +7.2 35 +24 +24 комфорт 1011.5 936.6 +31.1
21 17.09 штиль 0 20 км ясно +18.4 +6.6 46 +19 +19 1013.6 937.4
00 18.09 штиль 0 20 км ясно +16.2 +7.7 57 +16 +16 1014.2 937.4
03 18.09 штиль 0 20 км ясно +13.4 +7.2 66 +13 +13 1014.8 937.2
06 18.09 штиль 0 20 км ясно +16.0 +9.0 63 +16 +18 1014.6 938.0 +12.4
09 18.09 штиль 0 20 км ясно +25.2 +8.8 35 +26 +40 жарко 1013.2 938.7
12 18.09 С 2 20 км 1/1 1000 м
[Cu hum]
+26.8 +10.0 35 +27 +37 жарко 1011.9 938.2
15 18.09 С 3 20 км 1/1 1230 м
[Cu hum]
+24.6 +9.5 38 +25 +27 комфорт 1011.7 937.5
18 18.09 С 4 20 км 1/0 2000 м
[Ac trans]
+19.0 +6.4 44 +19 +19 1015.1 939.0 +27.5
21 18.09 СВ 1 20 км 3/0
[Ac trans]
+17.0 +6.0 48 +18 +18 1017.7 940.9

 

Местоположение метеостанции Прилеп (Македония): широта 41.33 долгота 21.57 высота над уровнем моря 674 м.

В архиве по умолчанию представлена погода в Прилепе за последнюю неделю. Архивные данные за месяц целиком и за предыдущие месяцы, начиная с января 2011 года, Вы можете получить, выбрав интересующий диапазон дат из раскрывающегося списка и нажав кнопку "Ввод!".


*Определитесь, кто Вы:
робот инопланетянин человек

Внимание! Время в таблицах - всемирное. Для получения местного времени необходимо прибавить поправку, которая равна 1 ч.

Смотрите также архив погоды в соседних городах и на ближайших метеорологических станциях:

Погода в Тополчани (Македония) (15 км)
Погода в Битоле (Македония) (35 км)
Погода в Демир-Капия (Македония) (58 км)
Погода во Флорине (Греция) (63 км)
Погода в Гуришках (Македония) (68 км)
Погода в Охриде (Македония) (68 км)
Погода в Преторе (Македония) (68 км)
Погода в Охрид аэропорту (Македония) (69 км)
Погода в Штипе (Македония) (69 км)
Погода в Скопье (Македония) (70 км)

Пояснения к столбцам:

Ветер - указаны скорость ветра в м/с - средняя за 10 мин, порывы в срок и между сроками (в фигурных скобках) и направление, откуда дует ветер: С - северный, СВ - северо-восточный, В - восточный, ЮВ - юго-восточный, Ю - южный, ЮЗ - юго-западный, З - западный, СЗ - северо-западный.
Видимость - горизонтальная дальность видимости в метрах или километрах. При видимости от 1 до 10 км при отсутствии осадков обычно наблюдается дымка, при ухудшении видимости до 1 км и менее - туман. В сухую погоду видимость может ухудшаться дымом, пылью или мглою.
Явления - указаны атмосферные явления, наблюдавшиеся в срок или в последний час перед сроком; фигурными скобками обозначены явления, наблюдавшиеся между сроками (за 1-3 часа до срока); квадратными скобками обозначены град или гололедные отложения с указанием их диаметра в мм.
Облачность - указаны через наклонную черту общая и нижняя облачность в баллах и высота нижней границы облаков в метрах; квадратными скобками обозначены формы облаков: Ci - перистые, Cs - перисто-слоистые, Cc - перисто-кучевые, Ac - высококучевые, As - высокослоистые, Sc - слоисто-кучевые, Ns - слоисто-дождевые, Cu - кучевые, Cb - кучево-дождевые. Подробнее классификацию облаков см. в Атласе облаков (PDF).
T - Температура воздуха - температура, измеренная на высоте 2 м над землей.
Td - Температура точки росы - температура, при понижении до которой содержащийся в воздухе водяной пар достигнет насыщения.
f - Относительная влажность воздуха - влажноcть воздуха, измеренная на высоте 2 м над землей.
Te - Эффективная температура - температура, которую ощущает одетый по сезону человек в тени. Характеристика душности погоды. При расчете учитывается влияние влажности воздуха и скорости ветра на теплоощущения человека.
Tes - Эффективная температура на солнце - температура, которую ощущает человек, с поправкой на солнечный нагрев. Характеристика знойности погоды. Зависит от высоты солнца над горизонтом, облачности и скорости ветра. Ночью, в пасмурную погоду, а также при ветре 12 м/с и более поправка равна нулю.
P - Атмосферное давление - приведенное к уровню моря атмосферное давление.
Po - Атмосферное давление - измеренное на уровне метеостанции атмосферное давление.
Tmin - Минимальная температура - минимум температуры воздуха на высоте 2 м над землей.
Tmax - Максимальная температура - максимум температуры воздуха на высоте 2 м над землей.
R - Количество осадков - Количество выпавших осадков за период времени, мм. При наведении курсора мыши на число - период времени, за который выпало указанное количество осадков.
R24 - Количество осадков - Количество выпавших осадков за 24 часа, мм.
S - Снежный покров - Высота снежного покрова, см. При наведении курсора мыши на число - состояние снежного покрова и степень покрытия местности в баллах.